Tracking 20036 objects as of 22-Nov-2019
Live streaming from Space Station
objects crossing your sky now

CZ-2D DEB


CZ-2D DEB is no longer on orbit


NORAD ID: 41451
Int'l Code: 2016-023D
Perigee: N/A
Apogee: N/A
Inclination: N/A
Period: N/A
Semi major axis: N/A
RCS: N/A
Launch date: April 5, 2016
Source: People's Republic of China (PRC)
Launch site: Jiuquan Satellite Launch Center, China (JSC)
Decay date: 2016-04-06

Note: This is SATELLITE DEBRIS
aabbcc
Your satellite tracking list
Your tracking list is empty




NASA's NSSDC Master Catalog

Two Line Element Set (TLE):
1 41451U 16023D   16097.42270058 +.12944454 +89845-5 +58772-2 0  9991
2 41451 042.8980 084.0517 0013819 310.1685 181.4435 16.20790621000111
Source of the keplerian elements: AFSPC